Total_Precipitation_Accumulation
0.01 0.05 0.12 0.12 0.15 0.25 0.34 0.39 0.44 0.53 0.64 0.68 0.81 0.80 0.58 0.47 0.68 0.91 1.06 1.11 0.92 0.77 0.68 0.47 0.27 0.27 0.26 0.29 0.34 0.49 0.53 0.66 0.59 0.41 0.31 0.30 0.30 0.33 0.49 0.72 0.65 0.32 0.13
0.00 0.00 0.00 0.02 0.02 0.04 0.06 0.10 0.18 0.23 0.33 0.34 0.34 0.41 0.40 0.38 0.39 0.55 0.76 0.84 0.76 0.71 0.85 0.62 0.35 0.47 0.43 0.48 0.41 0.45 0.52 0.61 0.66 0.49 0.44 0.47 0.50 0.68 0.65 0.43 0.27 0.22 0.16
0.00 0.00 0.00 0.00 0.00 0.01 0.01 0.02 0.06 0.07 0.10 0.16 0.19 0.27 0.31 0.40 0.40 0.39 0.41 0.52 0.46 0.53 0.57 0.49 0.45 0.61 0.47 0.59 0.61 0.55 0.54 0.53 0.56 0.59 0.54 0.54 0.52 0.57 0.53 0.43 0.36 0.28 0.26
0.00 0.00 0.00 0.00 0.00 0.00 0.01 0.01 0.02 0.02 0.03 0.04 0.08 0.10 0.18 0.27 0.31 0.32 0.35 0.42 0.42 0.38 0.36 0.36 0.48 0.54 0.57 0.68 0.73 0.74 0.75 0.68 0.60 0.55 0.57 0.60 0.50 0.36 0.31 0.27 0.23 0.20 0.11
0.00 0.00 0.00 0.00 0.00 0.00 0.00 0.01 0.02 0.02 0.03 0.03 0.06 0.08 0.14 0.18 0.21 0.25 0.28 0.30 0.35 0.39 0.40 0.40 0.45 0.61 0.55 0.62 0.58 0.48 0.48 0.46 0.43 0.36 0.32 0.27 0.22 0.25 0.24 0.20 0.20 0.18 0.14
0.00 0.00 0.00 0.00 0.00 0.00 0.00 0.00 0.00 0.00 0.01 0.02 0.03 0.03 0.05 0.06 0.13 0.17 0.16 0.16 0.19 0.22 0.29 0.41 0.43 0.50 0.49 0.56 0.55 0.48 0.41 0.34 0.27 0.26 0.19 0.14 0.11 0.13 0.16 0.19 0.23 0.26 0.30
0.00 0.00 0.00 0.00 0.00 0.00 0.00 0.00 0.00 0.00 0.00 0.00 0.00 0.01 0.02 0.02 0.07 0.08 0.12 0.14 0.14 0.15 0.12 0.13 0.17 0.21 0.29 0.23 0.30 0.29 0.25 0.26 0.22 0.17 0.11 0.10 0.11 0.17 0.22 0.22 0.23 0.25 0.17
0.00 0.00 0.00 0.01 0.00 0.01 0.00 0.00 0.00 0.01 0.01 0.03 0.03 0.04 0.04 0.07 0.12 0.09 0.10 0.08 0.09 0.09 0.09 0.10 0.09 0.08 0.10 0.11 0.11 0.11 0.10 0.12 0.14 0.11 0.05 0.05 0.08 0.10 0.09 0.11 0.11 0.13 0.13
0.00 0.00 0.00 0.00 0.00 0.01 0.02 0.03 0.02 0.02 0.03 0.03 0.04 0.04 0.05 0.09 0.18 0.15 0.14 0.06 0.09 0.10 0.09 0.09 0.10 0.07 0.14 0.14 0.07 0.06 0.07 0.08 0.15 0.13 0.09 0.09 0.09 0.08 0.07 0.06 0.08 0.12 0.16
0.00 0.00 0.00 0.00 0.00 0.00 0.01 0.01 0.01 0.01 0.01 0.01 0.03 0.03 0.07 0.07 0.15 0.13 0.12 0.07 0.12 0.13 0.14 0.14 0.25 0.13 0.24 0.22 0.09 0.08 0.12 0.16 0.14 0.17 0.16 0.14 0.12 0.11 0.14 0.13 0.13 0.19 0.27
0.00 0.00 0.00 0.00 0.00 0.00 0.00 0.00 0.00 0.00 0.00 0.01 0.02 0.03 0.05 0.06 0.10 0.14 0.13 0.10 0.11 0.15 0.14 0.13 0.16 0.31 0.23 0.20 0.16 0.10 0.22 0.25 0.26 0.18 0.17 0.17 0.17 0.20 0.24 0.28 0.35 0.40 0.35
0.00 0.00 0.00 0.00 0.00 0.00 0.00 0.00 0.00 0.00 0.00 0.00 0.02 0.04 0.06 0.09 0.14 0.15 0.14 0.12 0.16 0.13 0.16 0.17 0.27 0.41 0.21 0.22 0.23 0.24 0.29 0.24 0.19 0.21 0.31 0.41 0.47 0.49 0.50 0.49 0.40 0.27 0.16
0.00 0.00 0.00 0.00 0.00 0.00 0.00 0.00 0.00 0.00 0.00 0.00 0.01 0.04 0.08 0.09 0.14 0.20 0.27 0.30 0.28 0.20 0.26 0.47 0.56 0.49 0.43 0.46 0.48 0.52 0.57 0.56 0.56 0.61 0.62 0.62 0.60 0.52 0.42 0.31 0.21 0.10 0.05
0.00 0.00 0.00 0.00 0.00 0.00 0.00 0.00 0.00 0.01 0.01 0.01 0.01 0.03 0.05 0.09 0.12 0.12 0.21 0.35 0.43 0.47 0.60 0.59 0.55 0.53 0.52 0.52 0.54 0.48 0.44 0.45 0.47 0.43 0.40 0.39 0.36 0.32 0.24 0.16 0.11 0.06 0.04
0.00 0.00 0.00 0.00 0.00 0.01 0.00 0.01 0.01 0.00 0.01 0.01 0.01 0.01 0.04 0.07 0.11 0.15 0.14 0.10 0.15 0.34 0.52 0.56 0.54 0.49 0.46 0.46 0.46 0.46 0.46 0.48 0.46 0.42 0.38 0.32 0.28 0.23 0.18 0.12 0.08 0.05 0.04
0.00 0.00 0.01 0.01 0.01 0.01 0.00 0.01 0.02 0.03 0.03 0.02 0.03 0.03 0.05 0.12 0.18 0.16 0.14 0.16 0.19 0.21 0.13 0.14 0.27 0.41 0.56 0.63 0.61 0.58 0.55 0.52 0.39 0.29 0.23 0.20 0.18 0.16 0.16 0.13 0.06 0.04 0.05
0.01 0.01 0.01 0.01 0.01 0.01 0.01 0.02 0.02 0.02 0.03 0.03 0.03 0.04 0.05 0.09 0.13 0.13 0.14 0.17 0.23 0.27 0.24 0.35 0.51 0.57 0.61 0.60 0.57 0.54 0.51 0.43 0.35 0.33 0.29 0.25 0.22 0.21 0.24 0.17 0.14 0.10 0.10
0.01 0.04 0.03 0.01 0.02 0.02 0.02 0.02 0.02 0.03 0.02 0.02 0.03 0.04 0.06 0.11 0.13 0.15 0.16 0.18 0.21 0.23 0.16 0.22 0.29 0.28 0.24 0.23 0.27 0.34 0.43 0.48 0.45 0.40 0.38 0.35 0.32 0.30 0.29 0.25 0.22 0.18 0.18
0.01 0.02 0.02 0.03 0.03 0.05 0.03 0.03 0.03 0.03 0.03 0.03 0.02 0.05 0.07 0.09 0.12 0.14 0.15 0.11 0.08 0.11 0.13 0.18 0.21 0.23 0.25 0.28 0.33 0.36 0.39 0.41 0.41 0.40 0.40 0.39 0.36 0.33 0.33 0.31 0.28 0.26 0.23
0.05 0.15 0.10 0.06 0.07 0.07 0.06 0.06 0.05 0.05 0.06 0.05 0.04 0.04 0.07 0.13 0.16 0.19 0.21 0.16 0.14 0.14 0.18 0.22 0.23 0.24 0.28 0.32 0.35 0.38 0.45 0.46 0.44 0.40 0.42 0.41 0.40 0.32 0.31 0.31 0.28 0.25 0.21
0.07 0.13 0.23 0.15 0.12 0.12 0.13 0.12 0.11 0.10 0.09 0.07 0.06 0.07 0.13 0.12 0.11 0.11 0.11 0.12 0.20 0.34 0.44 0.41 0.39 0.37 0.36 0.35 0.37 0.42 0.43 0.41 0.41 0.40 0.41 0.41 0.34 0.32 0.31 0.26 0.24 0.18 0.14
0.14 0.14 0.19 0.27 0.31 0.27 0.23 0.21 0.23 0.26 0.24 0.21 0.19 0.35 0.45 0.30 0.25 0.30 0.33 0.35 0.39 0.39 0.38 0.47 0.55 0.49 0.44 0.41 0.38 0.39 0.39 0.38 0.39 0.40 0.40 0.38 0.35 0.28 0.24 0.22 0.16 0.12 0.12
0.21 0.19 0.17 0.18 0.24 0.37 0.40 0.31 0.35 0.37 0.36 0.35 0.39 0.51 0.58 0.51 0.53 0.48 0.41 0.48 0.57 0.60 0.50 0.41 0.45 0.58 0.58 0.58 0.53 0.40 0.36 0.38 0.35 0.30 0.30 0.29 0.28 0.27 0.20 0.14 0.12 0.13 0.12
0.17 0.18 0.17 0.17 0.22 0.30 0.31 0.31 0.31 0.35 0.37 0.40 0.48 0.52 0.52 0.49 0.59 0.72 0.77 0.73 0.75 0.73 0.69 0.59 0.45 0.44 0.50 0.49 0.52 0.51 0.38 0.31 0.31 0.27 0.20 0.20 0.22 0.19 0.16 0.14 0.10 0.06 0.05
0.12 0.13 0.13 0.14 0.18 0.19 0.28 0.33 0.36 0.39 0.44 0.47 0.52 0.52 0.52 0.58 0.66 0.74 0.85 0.82 0.79 0.78 0.72 0.63 0.57 0.51 0.45 0.41 0.36 0.29 0.31 0.31 0.28 0.27 0.20 0.16 0.15 0.12 0.09 0.08 0.08 0.05 0.03
0.15 0.14 0.15 0.16 0.22 0.21 0.23 0.28 0.36 0.38 0.40 0.45 0.43 0.49 0.58 0.63 0.62 0.64 0.60 0.60 0.59 0.58 0.61 0.52 0.50 0.49 0.46 0.40 0.34 0.29 0.29 0.27 0.22 0.16 0.13 0.10 0.10 0.09 0.05 0.04 0.03 0.01 0.01